Eglin Air Force Base, FL

2:17 AM CDT on September 29, 2016 (GMT -0500)
Eglin Air Force Base

Weather History for KVPS - January, 2013

Change the Weather History Date:

Monday, January 21, 2013

  Actual Average Record
Temperature  
Mean Temperature 54 °F -  
Max Temperature 66 °F 59 °F 78 °F (1952)
Min Temperature 43 °F 36 °F 4 °F (1985)
Degree Days  
Heating Degree Days 10    
Growing Degree Days 4 (Base 50)    
Moisture  
Dew Point 40 °F    
Average Humidity 61    
Maximum Humidity 91    
Minimum Humidity 32    
Precipitation  
Precipitation 0.00 in - - ()
Sea Level Pressure  
Sea Level Pressure 30.16 in    
Wind  
Wind Speed 5 mph (NNW)    
Max Wind Speed 9 mph    
Max Gust Speed -    
Visibility 10 miles    
Events      
Averages and records for this station are not official NWS values.
T = Trace of Precipitation, MM = Missing Value Source: NWS Daily Summary

Daily Weather History Graph

Daily Weather History Graph

Search for Another Location

Airport or City:

Trip Planner

Search our weather history database for the weather conditions in past years. The results will help you decide how hot, cold, wet, or windy it might be!

Date:

Astronomy

Jan. 21, 2013 Rise Set
Actual Time 6:42 AM CST 5:13 PM CST
Civil Twilight 6:16 AM CST 5:38 PM CST
Nautical Twilight 5:47 AM CST 6:08 PM CST
Astronomical Twilight 5:18 AM CST 6:36 PM CST
Moon 12:54 PM CST (1/21) 2:09 AM CST (1/21)
Length of Visible Light 11h 22m
Length of Day
10h 30m
Waxing Gibbous, 75% of the Moon is Illuminated
Jan 21
Waxing Gibbous
Jan 26
Full
Feb 3
Last Quarter
Feb 10
New
Feb 17
First Quarter

Hourly Weather History & Observations

Time (CST) Temp. Windchill Dew Point Humidity Pressure Visibility Wind Dir Wind Speed Gust Speed Precip Events Conditions
12:55 AM 45.7 °F 44.4 °F 43.2 °F 91% 30.14 in 10.0 mi NW 3.5 mph - N/A   Mostly Cloudy
1:55 AM 45.1 °F 42.8 °F 42.6 °F 91% 30.12 in 10.0 mi NW 4.6 mph - N/A   Mostly Cloudy
2:55 AM 45.7 °F 43.4 °F 42.1 °F 87% 30.12 in 10.0 mi NW 4.6 mph - N/A   Mostly Cloudy
3:55 AM 45.5 °F 44.2 °F 41.2 °F 85% 30.11 in 10.0 mi NW 3.5 mph - N/A   Mostly Cloudy
4:55 AM 43.5 °F 40.1 °F 40.1 °F 88% 30.13 in 10.0 mi NW 5.8 mph - N/A   Mostly Cloudy
5:55 AM 44.1 °F 41.5 °F 38.8 °F 82% 30.14 in 10.0 mi NNW 4.6 mph - N/A   Scattered Clouds
6:55 AM 43.2 °F 39.0 °F 38.8 °F 85% 30.16 in 10.0 mi NNW 6.9 mph - N/A   Scattered Clouds
7:55 AM 49.3 °F - 40.1 °F 71% 30.19 in 10.0 mi NNW 4.6 mph - N/A   Scattered Clouds
8:55 AM 54.9 °F - 40.3 °F 58% 30.21 in 10.0 mi NNW 5.8 mph - N/A   Scattered Clouds
9:55 AM 59.5 °F - 40.6 °F 50% 30.22 in 10.0 mi North 5.8 mph - N/A   Scattered Clouds
10:50 AM 62.6 °F - 37.4 °F 39% 30.17 in 10.0 mi NNW 6.9 mph - N/A   Scattered Clouds
10:55 AM 63.7 °F - 37.0 °F 37% 30.19 in 10.0 mi NW 8.1 mph - N/A   Scattered Clouds
11:55 AM 65.5 °F - 37.4 °F 35% 30.14 in 10.0 mi NNE 9.2 mph - N/A   Scattered Clouds
12:55 PM 66.7 °F - 36.0 °F 32% 30.13 in 10.0 mi NNW 3.5 mph - N/A   Scattered Clouds
1:55 PM 66.2 °F - 36.9 °F 34% 30.12 in 10.0 mi NNW 8.1 mph - N/A   Mostly Cloudy
2:55 PM 66.4 °F - 36.7 °F 33% 30.12 in 10.0 mi NW 4.6 mph - N/A   Mostly Cloudy
3:55 PM 64.9 °F - 37.0 °F 36% 30.14 in 10.0 mi NNW 4.6 mph - N/A   Mostly Cloudy
4:55 PM 61.9 °F - 40.1 °F 45% 30.14 in 10.0 mi WNW 3.5 mph - N/A   Mostly Cloudy
5:55 PM 53.6 °F - 44.6 °F 72% 30.16 in 10.0 mi Variable 3.5 mph - N/A   Mostly Cloudy
6:55 PM 56.1 °F - 41.7 °F 58% 30.17 in 10.0 mi NNW 5.8 mph - N/A   Mostly Cloudy
7:55 PM 55.6 °F - 41.4 °F 59% 30.18 in 10.0 mi NNW 5.8 mph - N/A   Mostly Cloudy
8:55 PM 54.0 °F - 41.0 °F 62% 30.20 in 10.0 mi NNW 5.8 mph - N/A   Mostly Cloudy
9:55 PM 53.1 °F - 40.6 °F 63% 30.20 in 10.0 mi NNW 6.9 mph - N/A   Overcast
10:55 PM 51.6 °F - 40.5 °F 66% 30.20 in 10.0 mi North 8.1 mph - N/A   Overcast
11:55 PM 49.8 °F - 39.6 °F 68% 30.20 in 10.0 mi North 5.8 mph - N/A   Overcast